Home   Weather   Salinas   Past weeks

Flag for USA Past Weather in Salinas, California, USA — Yesterday and Last 2 Weeks

Now
55 °F

Overcast.


Feels Like: 52 °F
Forecast: 53 / 66 °F
Wind: 9 mph from Southwest

Location: Salinas Municipal Airport

Current Time: Apr 25, 2017 at 1:42:36 am

Latest Report: Apr 25, 2017 at 12:53 am


Visibility: 10 mi

Pressure: 30.11 "Hg

Humidity: 83%

Dew Point: 50 °F

Location of SalinasLocation

Past Weather in Salinas — Graph

°F

Salinas Temperature Yesterday

Maximum temperature yesterday: 63 °F (at 1:53 pm)
Minimum temperature yesterday: 51 °F (at 6:53 am)
Average temperature yesterday: 57 °F

High & Low Weather Summary for the Past Weeks

 TemperatureHumidityPressure
High74 °F (Apr 15, 2:53 pm)100% (Apr 19, 7:07 am)30.32 "Hg (Apr 19, 7:07 am)
Low39 °F (Apr 10, 6:53 am)31% (Apr 22, 12:53 pm)29.94 "Hg (Apr 13, 4:16 am)
Average57 °F74%30.10 "Hg
* Reported Apr 10 12:53 am — Apr 25 12:19 am, Salinas, Weather by CustomWeather, © 2017

Note: Actual official high and low records may vary slightly from our data, if they occured in-between our weather recording intervals... More about our weather records

Advertising

Salinas Weather History for the Previous 24 Hours

Scroll right to see more
 ConditionsComfort  
Time TempWeatherWind HumidityBarometerVisibility
12:19 am
Tue, Apr 25
56 °FOvercast.9 mph81%30.08 "Hg10 mi
11:53 pm
Mon, Apr 24
56 °FOvercast.8 mph81%30.11 "Hg10 mi
11:06 pm56 °FMostly cloudy.12 mph84%30.08 "Hg10 mi
10:53 pm56 °FMostly cloudy.13 mph84%30.11 "Hg10 mi
10:03 pm57 °FOvercast.8 mph83%30.07 "Hg10 mi
8:53 pm57 °FOvercast.8 mph87%30.09 "Hg10 mi
7:53 pm58 °FMostly cloudy.13 mph84%30.09 "Hg10 mi
7:10 pm59 °FOvercast.13 mph78%30.06 "Hg10 mi
6:53 pm59 °FOvercast.13 mph78%30.08 "Hg10 mi
5:53 pm59 °FMostly cloudy.12 mph78%30.09 "Hg9 mi
4:53 pm60 °FLight rain. Mostly cloudy.13 mph72%30.10 "Hg10 mi
4:02 pm61 °FMostly cloudy.9 mph67%30.08 "Hg10 mi
2:53 pm61 °FCloudy.13 mph70%30.12 "Hg10 mi
2:23 pm62 °FMostly cloudy.12 mph62%30.09 "Hg10 mi
1:53 pm63 °FMostly cloudy.10 mph63%30.11 "Hg10 mi
1:28 pm62 °FMostly cloudy.13 mph62%30.09 "Hg10 mi
12:53 pm61 °FMore clouds than sun.13 mph65%30.13 "Hg10 mi
12:25 pm62 °FMostly cloudy.12 mph60%30.11 "Hg10 mi
12:12 pm61 °FCloudy.13 mph62%30.11 "Hg10 mi
11:53 am61 °FMostly cloudy.10 mph62%30.14 "Hg10 mi
10:53 am60 °FOvercast.13 mph60%30.14 "Hg10 mi
9:53 am59 °FMostly cloudy.9 mph62%30.12 "Hg10 mi
8:53 am56 °FOvercast.10 mph70%30.11 "Hg10 mi
7:53 am54 °FOvercast.3 mph80%30.10 "Hg9 mi
6:53 am51 °FFog.5 mph89%30.09 "Hg6 mi
5:53 am52 °FPassing clouds.7 mph83%30.08 "Hg10 mi
5:33 am52 °FPartly cloudy.7 mph83%30.05 "Hg10 mi
4:53 am52 °FClear.7 mph83%30.08 "Hg10 mi
3:53 am53 °FClear.6 mph83%30.07 "Hg10 mi
2:53 am53 °FClear.8 mph83%30.06 "Hg10 mi
1:53 am53 °FClear.7 mph83%30.06 "Hg10 mi
Weather by CustomWeather, © 2017

See weather overviewHow to use our weather pages